Temperature
18 18 17 17 17 17 17 17 17 17 17 17 17 17 17 17 16 16 16 16 16 16 16 16 16 16 16 16 16 16 16 16 16 16 16 16 16 16 16 16 16 16 16
17 17 17 17 17 17 17 17 17 17 17 17 17 16 16 16 16 16 16 16 16 16 16 16 16 16 16 16 16 16 16 16 16 16 16 16 16 16 15 15 15 15 15
18 17 17 17 17 17 17 17 16 16 16 16 16 16 16 16 16 16 16 16 16 16 16 16 16 16 15 15 15 15 15 15 15 15 15 15 15 15 15 15 15 15 15
17 17 17 17 17 17 16 16 16 16 16 16 16 16 16 16 15 15 15 15 15 15 15 15 15 15 15 15 15 15 15 15 15 15 15 15 14 14 14 14 14 14 14
17 17 17 17 17 16 16 16 16 16 15 15 15 15 15 15 15 15 15 15 15 15 15 15 15 15 15 15 14 14 14 14 14 14 14 14 14 14 14 13 13 13 13
17 17 16 16 16 16 15 15 15 15 15 15 15 15 15 15 14 14 15 15 14 14 14 14 14 14 14 14 14 14 14 14 14 14 13 13 13 13 13 13 13 13 12
16 16 16 16 16 15 15 15 15 14 14 15 14 14 14 14 14 14 14 14 14 14 14 14 14 14 14 13 13 13 13 13 13 13 13 13 12 12 12 12 12 12 12
16 16 16 15 15 15 15 14 14 14 14 14 14 14 13 13 13 13 14 14 14 13 13 13 13 13 13 13 13 13 12 12 12 12 12 12 12 12 11 11 11 11 11
16 15 15 15 15 15 14 14 14 14 14 13 13 13 13 13 13 13 13 13 13 13 13 12 12 12 12 12 12 12 12 11 11 11 11 11 11 11 11 11 11 10 10
15 15 15 15 15 14 14 14 13 13 13 13 13 13 13 13 13 13 13 13 13 12 12 12 12 12 11 11 12 11 11 11 11 10 10 10 10 10 10 10 10 10 9
15 15 14 14 14 14 13 13 13 13 13 12 12 12 12 12 12 12 12 12 12 12 11 11 11 11 11 11 11 11 10 10 10 10 9 9 9 9 9 9 9 9 9
14 14 14 14 13 13 13 13 13 12 12 12 12 12 11 11 11 11 11 11 11 11 11 10 10 10 10 10 10 10 9 9 9 9 9 9 8 8 8 8 8 8 8
14 14 13 13 13 12 12 12 12 12 12 11 11 11 11 11 11 11 11 11 10 10 10 10 9 9 9 9 9 9 9 8 8 8 8 8 7 7 7 7 7 7 7
13 13 13 12 12 12 11 11 11 11 11 11 11 10 10 10 10 10 10 10 10 10 9 9 9 9 8 8 8 8 8 8 7 7 7 7 7 7 7 7 6 6 6
13 12 12 12 11 11 11 11 10 10 10 10 10 10 10 10 9 9 9 9 9 9 9 8 8 8 8 7 7 7 7 7 7 6 6 6 6 6 6 6 6 6 6
12 12 11 11 11 11 10 10 10 10 9 9 9 9 9 9 9 9 9 9 8 8 8 8 7 7 7 6 6 6 6 6 6 6 6 6 6 6 5 5 5 5 5
12 11 11 11 10 10 10 10 9 9 9 9 9 9 8 8 8 8 8 8 7 7 8 7 7 6 6 6 6 5 5 5 5 5 5 5 5 5 5 5 5 5 5
11 11 11 10 10 9 9 9 9 9 9 8 8 8 8 7 7 7 7 7 7 7 7 6 6 6 5 5 5 5 5 5 5 5 5 4 4 4 4 4 4 4 4
11 10 10 10 9 9 9 9 8 8 8 8 7 7 7 7 7 7 7 7 6 6 6 5 5 5 5 5 5 5 4 4 4 4 4 4 4 4 4 4 4 4 4
10 10 10 9 9 9 9 8 8 8 7 7 7 7 7 7 6 6 6 6 6 5 5 5 5 4 4 4 4 4 4 4 4 4 3 3 3 3 3 3 3 3 3
10 9 9 9 9 8 8 8 8 7 7 7 7 6 6 6 6 6 5 5 5 5 5 4 4 4 4 4 4 4 4 3 3 3 3 3 3 3 3 3 3 3 3
9 9 9 9 8 8 8 7 7 7 7 7 6 6 6 6 5 5 5 5 5 4 4 4 4 4 4 4 4 3 3 3 3 3 3 3 3 3 3 3 3 3 3
9 9 8 8 8 8 7 7 7 7 7 6 6 6 6 5 5 5 5 4 4 4 4 4 4 4 3 3 3 3 3 3 3 3 3 3 3 3 3 3 3 3 3
9 8 8 8 8 7 7 7 7 7 6 6 6 6 5 5 5 5 4 4 4 4 4 3 3 3 3 3 3 3 3 3 3 3 2 2 2 2 2 2 2 2 2
8 8 8 8 8 7 7 7 7 6 6 6 6 5 5 5 5 4 4 4 4 4 3 3 3 3 3 3 3 3 3 3 2 2 2 2 2 2 2 2 2 2 2
8 8 8 8 7 7 7 7 7 6 6 6 6 5 5 5 5 4 4 4 4 3 3 3 3 3 3 3 3 2 2 2 2 2 2 2 2 2 2 2 2 2 2
Wind_Speed
3 2 2 1 1 1 1 2 2 2 3 4 4 4 5 5 5 5 6 6 7 6 5 5 5 4 3 3 3 4 4 4 5 3 2 1 1 1 1 1 2 3 3
3 3 2 2 2 1 1 0 1 1 1 2 2 3 4 4 4 5 6 6 6 6 5 5 4 3 3 2 3 3 4 4 4 5 2 1 1 1 0 1 1 0 0
4 4 3 3 3 2 1 1 1 1 1 1 1 1 1 2 3 4 4 4 5 5 5 5 4 4 3 2 2 3 3 3 3 3 2 1 0 1 1 1 2 2 2
5 5 4 4 3 2 2 2 2 2 2 1 1 0 0 1 2 2 3 3 4 4 4 4 4 4 4 3 2 3 2 2 2 2 2 1 0 0 1 1 1 2 2
6 5 4 4 4 4 4 4 4 3 3 2 2 2 1 1 0 1 2 3 3 3 2 2 3 3 4 3 2 2 2 2 2 2 1 1 0 1 0 0 1 1 2
6 5 5 5 5 5 4 4 5 5 4 4 4 3 3 3 3 4 4 4 4 4 3 3 3 4 5 5 5 5 4 3 3 2 1 1 0 0 0 0 1 1 0
6 6 5 5 5 5 5 5 5 5 5 5 5 5 5 5 5 6 7 6 6 5 4 3 4 4 5 5 8 10 10 9 6 3 3 1 1 0 1 1 1 1 0
6 6 5 5 6 5 5 5 5 5 5 5 5 5 5 6 7 8 9 8 7 7 6 5 5 5 5 6 7 8 8 8 7 6 5 4 3 2 2 2 2 2 2
6 6 5 5 6 6 5 5 4 5 5 5 4 5 5 5 7 7 8 7 7 7 7 7 6 6 7 8 8 8 8 8 12 15 14 13 12 11 7 4 4 3 2
6 5 5 5 5 5 5 4 4 5 6 5 6 6 7 6 8 9 7 6 7 7 7 7 10 9 9 9 8 8 8 6 6 8 9 11 11 12 12 7 3 3 2
6 6 6 6 5 5 5 5 5 5 7 7 8 8 8 8 9 10 8 6 6 7 6 6 6 11 11 11 9 8 7 6 6 7 7 7 7 7 8 9 7 4 3
7 8 7 6 6 5 6 6 6 6 7 7 8 8 8 8 9 10 12 10 8 8 6 5 7 11 12 12 9 9 10 8 6 6 6 6 5 5 5 7 8 8 6
8 8 7 8 8 7 7 7 6 6 6 6 6 7 6 6 8 13 13 13 13 9 8 11 11 12 11 10 12 11 8 6 6 6 5 4 3 3 4 4 6 7 8
9 8 7 8 8 8 7 6 6 5 5 5 5 6 5 6 6 6 7 8 11 10 9 11 14 14 11 11 10 8 7 6 5 5 4 4 4 4 4 4 3 4 4
9 8 8 7 8 9 9 8 7 6 4 5 4 4 5 5 4 6 6 6 6 7 7 7 7 7 8 8 7 7 7 6 6 5 4 4 4 5 4 4 3 3 3
8 7 6 6 7 7 8 9 15 12 14 13 10 7 6 7 9 12 13 12 12 11 9 8 7 7 7 6 6 6 6 6 5 5 4 4 4 4 4 4 3 3 3
9 7 6 6 7 6 6 7 8 10 15 16 14 12 11 11 12 13 14 15 14 12 9 7 7 6 6 5 5 5 4 4 4 4 4 4 4 4 4 4 4 4 3
9 9 8 6 6 6 6 6 6 7 7 7 10 13 13 13 13 12 12 11 10 9 7 6 5 5 5 4 4 4 4 4 4 4 4 4 4 3 3 4 4 4 3
8 7 7 7 7 7 7 7 7 7 7 6 6 7 10 11 13 12 10 8 7 6 6 5 5 4 4 4 4 4 4 4 4 4 4 4 4 3 3 3 3 4 4
7 11 9 7 7 7 6 7 6 6 6 5 5 4 4 6 6 6 6 6 6 5 5 5 4 4 4 4 3 3 4 4 4 4 4 3 3 3 3 3 3 3 3
7 9 11 9 7 6 6 6 6 6 5 5 4 4 6 6 5 5 5 5 4 4 4 3 3 3 3 3 3 3 4 3 3 3 3 3 3 3 3 3 3 3 3
7 7 6 7 7 6 6 6 6 6 6 6 4 5 7 5 5 4 4 3 3 3 3 3 3 3 2 2 2 2 3 3 3 3 3 3 3 3 3 3 3 3 3
8 8 7 6 6 7 6 5 5 5 5 4 4 4 4 4 4 3 3 2 3 3 3 3 3 2 2 2 2 2 2 2 3 3 2 2 3 3 3 3 4 4 4
7 7 7 6 6 5 5 5 5 5 4 4 4 3 3 3 3 3 2 2 2 2 2 2 2 2 2 2 2 2 2 3 3 3 3 2 2 3 3 3 3 4 3
7 7 6 6 5 5 5 5 4 4 4 4 3 3 3 3 3 2 2 2 2 2 1 1 1 1 1 2 2 3 4 5 5 4 2 2 3 3 3 3 3 3 3
6 6 6 5 5 5 5 5 4 4 3 3 3 3 3 3 3 3 2 2 2 1 1 1 1 1 2 2 3 4 5 6 6 5 3 3 3 2 3 3 3 3 3
Wind_Direction
120 129 125 136 165 180 203 226 227 228 216 214 217 212 212 213 205 199 207 201 203 208 207 207 212 209 212 212 207 203 205 204 228 248 243 275 246 287 306 229 239 238 254
108 103 107 98 83 80 71 269 210 201 206 212 213 211 213 210 200 197 204 202 198 200 202 199 207 204 209 210 204 209 211 210 213 232 244 267 265 286 351 64 30 177 239
101 96 87 79 79 71 37 28 61 73 64 72 111 171 197 197 194 198 196 197 194 193 190 192 198 185 198 207 211 216 215 213 212 211 228 225 308 11 49 55 56 34 50
100 94 83 73 66 59 54 54 55 58 57 55 61 83 160 182 191 188 181 184 183 183 185 186 186 182 188 190 204 210 197 188 186 191 209 216 124 36 94 95 69 51 39
99 91 83 76 70 63 57 54 52 51 50 52 61 52 41 67 159 158 158 157 157 154 143 138 146 140 148 155 170 181 171 165 163 173 189 158 87 60 178 189 163 97 53
96 92 85 81 76 68 59 54 53 49 49 54 57 58 49 45 55 95 111 119 124 129 122 107 107 108 105 102 96 95 110 137 153 147 149 136 146 240 323 153 162 155 13
93 88 84 84 79 70 67 61 55 52 53 55 52 56 56 46 63 83 89 100 100 103 103 96 90 82 87 92 84 77 70 72 91 122 121 119 113 58 118 76 71 93 112
93 85 80 79 76 67 62 56 50 54 59 58 54 57 62 55 69 81 87 85 81 76 77 83 86 79 83 95 94 81 68 58 63 73 82 70 65 72 94 112 119 103 75
92 85 81 84 82 75 66 56 51 60 60 60 57 57 63 54 59 76 87 86 81 73 67 66 77 81 79 89 96 91 79 68 68 74 73 67 63 63 71 84 80 91 71
93 87 83 86 89 83 75 66 61 65 64 67 64 59 63 59 56 66 83 92 87 78 67 62 67 78 83 89 96 97 91 76 73 68 61 55 55 55 55 58 72 86 83
94 86 81 81 84 82 76 72 73 75 72 68 66 57 54 51 52 60 73 87 95 89 79 69 67 77 79 80 83 88 96 93 79 74 68 59 54 50 48 48 50 63 78
96 88 80 74 79 79 77 72 72 79 80 76 70 61 48 45 53 61 69 76 86 90 82 74 72 75 74 73 78 83 84 83 79 73 66 58 51 45 41 47 53 55 59
97 89 85 80 72 70 75 74 69 69 80 80 79 72 56 49 51 58 65 71 76 82 82 81 76 72 71 69 67 69 71 75 77 74 65 50 36 31 40 46 47 53 55
98 91 89 89 79 68 65 65 71 68 80 86 87 83 72 60 54 57 67 74 76 81 81 75 71 67 66 62 59 56 56 63 75 73 62 44 37 40 38 33 36 34 46
101 99 95 91 92 81 70 58 63 53 76 99 98 97 92 77 50 71 90 86 87 92 88 73 65 62 60 56 54 51 49 50 55 53 54 49 41 38 29 22 28 34 42
107 103 102 100 95 94 92 76 57 64 66 69 76 87 73 83 87 81 78 79 81 86 83 78 70 66 65 61 58 52 47 45 43 48 48 46 41 38 32 27 32 40 41
116 115 107 104 102 100 98 97 87 64 60 60 61 72 83 87 85 84 83 77 71 74 79 78 75 70 67 63 60 58 49 37 41 48 48 42 41 38 37 33 32 33 29
108 110 109 105 103 99 95 93 94 94 82 62 50 61 74 78 79 80 83 79 67 63 76 80 78 73 69 64 57 53 47 41 41 42 41 38 37 39 38 32 30 27 19
107 109 107 104 101 99 98 94 92 91 91 85 77 64 65 72 68 61 66 77 82 75 73 73 71 69 67 62 56 50 48 43 36 33 34 31 30 33 32 26 25 22 18
105 113 111 108 106 105 103 103 101 99 95 89 84 78 71 74 73 60 60 72 80 81 78 77 69 65 62 61 57 51 49 41 34 32 26 22 21 26 25 20 20 18 12
108 112 112 109 108 108 107 106 107 105 100 93 80 74 93 96 94 85 79 78 83 87 88 86 75 64 57 55 53 48 44 35 27 20 15 12 14 19 16 17 17 15 9
109 108 110 111 110 109 108 107 106 105 105 101 89 80 84 92 96 94 90 86 82 84 94 97 85 68 55 49 46 45 39 29 18 10 6 4 6 9 10 10 10 5 2
116 116 111 109 111 114 112 110 110 110 110 110 110 106 101 102 106 106 104 96 91 91 95 101 94 71 56 49 43 39 24 1 342 335 340 350 359 2 0 358 353 353 355
124 124 123 122 119 121 122 121 119 119 119 119 118 117 117 118 120 118 116 115 109 102 103 105 98 80 54 39 28 15 359 341 330 322 320 325 336 343 346 348 347 347 346
127 129 132 133 134 134 132 130 130 130 131 132 133 133 134 136 138 137 135 135 131 135 137 128 106 51 9 1 354 349 350 353 353 343 329 316 322 325 330 334 340 344 346
131 135 137 139 141 144 145 146 148 150 150 152 152 153 157 161 163 163 163 164 170 188 209 225 249 282 310 322 327 332 338 345 347 345 337 322 321 322 326 327 335 343 348
Height
1523 1524 1525 1526 1527 1528 1529 1530 1531 1531 1532 1533 1534 1535 1536 1538 1540 1541 1542 1544 1545 1547 1549 1550 1552 1553 1554 1555 1556 1557 1558 1559 1558 1558 1559 1560 1560 1561 1561 1561 1561 1561 1562
1522 1523 1524 1525 1525 1526 1527 1528 1528 1529 1529 1529 1530 1531 1532 1533 1535 1536 1538 1539 1541 1542 1544 1546 1547 1548 1550 1551 1552 1552 1553 1554 1555 1554 1554 1555 1556 1556 1557 1557 1557 1558 1558
1522 1523 1524 1525 1525 1525 1525 1526 1526 1526 1526 1527 1527 1527 1528 1529 1530 1532 1533 1534 1536 1538 1539 1541 1542 1544 1545 1547 1547 1548 1548 1549 1550 1550 1550 1550 1551 1552 1552 1553 1553 1554 1554
1522 1523 1524 1524 1524 1524 1524 1524 1524 1524 1524 1524 1524 1525 1525 1526 1526 1527 1528 1530 1531 1533 1535 1537 1538 1540 1541 1542 1543 1544 1544 1545 1545 1546 1546 1546 1547 1547 1548 1549 1549 1550 1551
1521 1523 1523 1523 1524 1524 1524 1523 1523 1523 1522 1522 1522 1522 1523 1523 1524 1525 1525 1526 1527 1529 1531 1533 1535 1537 1538 1539 1540 1540 1541 1541 1542 1542 1542 1543 1543 1544 1544 1545 1546 1546 1547
1522 1523 1523 1524 1524 1524 1523 1523 1522 1522 1521 1521 1521 1521 1521 1521 1522 1523 1523 1524 1524 1526 1529 1531 1533 1534 1535 1536 1537 1538 1538 1538 1539 1539 1539 1540 1540 1541 1542 1542 1543 1543 1544
1522 1523 1524 1525 1524 1524 1524 1523 1523 1522 1522 1521 1521 1521 1521 1521 1522 1523 1523 1523 1524 1526 1528 1529 1531 1532 1534 1534 1535 1535 1536 1536 1537 1538 1538 1538 1538 1538 1539 1539 1540 1540 1540
1523 1524 1524 1525 1525 1525 1524 1524 1523 1522 1522 1522 1521 1521 1521 1522 1523 1523 1524 1524 1525 1526 1528 1529 1530 1531 1533 1533 1534 1534 1534 1535 1535 1535 1536 1536 1537 1537 1537 1537 1538 1538 1538
1523 1523 1524 1525 1525 1525 1525 1525 1524 1523 1523 1523 1523 1523 1523 1523 1524 1525 1525 1526 1526 1528 1529 1530 1531 1532 1533 1533 1534 1534 1534 1534 1535 1535 1535 1535 1536 1535 1535 1536 1536 1536 1536
1522 1523 1524 1524 1525 1525 1525 1525 1525 1525 1524 1524 1524 1525 1525 1525 1526 1527 1527 1528 1528 1529 1529 1530 1532 1532 1533 1533 1534 1534 1534 1535 1535 1535 1535 1535 1536 1536 1536 1535 1535 1535 1535
1523 1523 1524 1525 1525 1526 1526 1526 1526 1526 1526 1525 1526 1526 1527 1527 1528 1528 1529 1529 1530 1530 1530 1531 1532 1533 1533 1534 1534 1534 1535 1536 1536 1536 1536 1536 1536 1536 1536 1536 1536 1536 1536
1522 1523 1524 1525 1526 1526 1527 1527 1527 1528 1527 1527 1528 1528 1529 1529 1529 1530 1530 1531 1531 1531 1532 1533 1534 1534 1534 1534 1535 1536 1536 1537 1537 1537 1537 1537 1537 1537 1537 1537 1537 1536 1536
1522 1523 1525 1526 1526 1527 1528 1528 1529 1529 1529 1530 1530 1530 1531 1531 1532 1532 1533 1533 1533 1534 1534 1535 1536 1536 1536 1536 1537 1537 1538 1538 1538 1538 1538 1538 1538 1538 1538 1538 1537 1537 1536
1523 1524 1525 1526 1527 1528 1529 1530 1530 1530 1531 1532 1532 1532 1533 1534 1534 1535 1535 1536 1536 1536 1536 1537 1537 1538 1538 1538 1538 1539 1539 1539 1539 1539 1539 1540 1540 1539 1539 1538 1538 1537 1536
1523 1524 1526 1527 1528 1529 1530 1531 1532 1532 1533 1534 1534 1535 1536 1536 1537 1538 1538 1538 1538 1538 1538 1539 1539 1540 1540 1540 1540 1540 1541 1541 1540 1540 1540 1540 1540 1540 1539 1538 1538 1537 1536
1524 1525 1527 1528 1530 1531 1532 1533 1534 1535 1535 1536 1537 1538 1538 1539 1540 1540 1540 1540 1540 1541 1541 1541 1541 1542 1542 1542 1542 1542 1542 1542 1542 1542 1542 1541 1541 1540 1540 1539 1538 1537 1536
1525 1526 1528 1530 1531 1533 1534 1535 1536 1537 1538 1539 1540 1541 1541 1542 1543 1543 1543 1543 1543 1543 1543 1543 1544 1544 1545 1545 1545 1545 1544 1544 1544 1543 1543 1542 1541 1541 1540 1539 1538 1537 1536
1526 1528 1530 1531 1533 1535 1536 1537 1538 1540 1541 1542 1543 1544 1545 1545 1545 1546 1546 1546 1546 1546 1546 1546 1547 1547 1547 1547 1547 1547 1546 1546 1545 1544 1544 1543 1542 1542 1541 1540 1539 1538 1536
1528 1530 1532 1533 1535 1537 1538 1540 1541 1542 1543 1545 1546 1547 1548 1548 1548 1549 1549 1549 1548 1549 1549 1549 1549 1549 1549 1549 1548 1548 1547 1547 1546 1545 1545 1544 1543 1542 1541 1540 1539 1538 1537
1531 1532 1534 1536 1537 1539 1541 1542 1543 1545 1546 1547 1549 1549 1550 1550 1551 1551 1551 1551 1551 1552 1552 1552 1552 1552 1551 1551 1550 1549 1548 1548 1547 1546 1545 1545 1544 1543 1542 1541 1539 1538 1537
1533 1535 1537 1538 1540 1542 1543 1545 1546 1547 1549 1550 1551 1552 1553 1553 1553 1554 1554 1554 1554 1554 1554 1554 1554 1553 1553 1552 1551 1551 1550 1549 1548 1547 1546 1545 1544 1543 1542 1541 1540 1539 1537
1535 1537 1539 1540 1542 1544 1546 1547 1549 1550 1551 1552 1553 1554 1555 1555 1556 1556 1556 1556 1556 1556 1556 1556 1556 1555 1554 1553 1553 1552 1551 1550 1549 1548 1547 1546 1545 1544 1543 1542 1541 1539 1538
1537 1539 1541 1543 1545 1546 1548 1550 1551 1552 1554 1555 1555 1556 1557 1557 1558 1558 1558 1558 1558 1558 1558 1557 1557 1556 1555 1554 1553 1553 1551 1550 1549 1548 1547 1546 1545 1544 1543 1542 1541 1539 1538
1540 1542 1544 1545 1547 1549 1550 1552 1553 1554 1556 1557 1557 1558 1559 1559 1559 1560 1560 1560 1560 1560 1559 1559 1558 1557 1556 1555 1554 1553 1552 1550 1549 1548 1547 1546 1545 1544 1543 1541 1540 1539 1538
1542 1544 1546 1548 1549 1551 1552 1554 1555 1556 1557 1558 1559 1560 1560 1560 1561 1561 1561 1561 1561 1561 1560 1559 1559 1558 1557 1555 1554 1553 1552 1550 1549 1548 1546 1545 1544 1543 1542 1541 1540 1538 1537
1544 1546 1548 1549 1551 1552 1554 1555 1556 1557 1558 1559 1560 1561 1561 1561 1562 1562 1562 1562 1561 1561 1560 1560 1559 1558 1557 1555 1554 1553 1551 1550 1548 1547 1545 1544 1543 1542 1541 1540 1539 1538 1536